Terminal Aerodrome Forecast
Issued by NWS Twin Cities, MN

Home | Current Version | Previous Version | Graphics & Text | Print | Product List | Glossary On
Versions: 1 2 3 4 5 6 7 8 9 10 11 12 13 14 15 16 17 18 19 20 21 22 23 24 25 26 27 28 29
000
FTUS43 KMPX 192337
TAFMSP
TAF
KMSP 192337Z 2000/2106 14007KT 6SM BR SCT030 BKN050
     FM200200 13004KT 6SM BR SCT005 BKN025
     FM200400 12004KT 2SM -DZ BR BKN005
     FM201600 11004KT 3SM BR OVC005
     FM201800 12005KT 6SM BR OVC005=

USA.gov is the U.S. government's official web portal to all federal, state and local government web resources and services.